Location: Northern Prairie Star Party
(53.2167°N, 112.5333°W)
Time: 07:28:34
(UTC-06:00)

Amateur Radio Satellites - All Passes

Search period start: 21 October 2014 06:58
Search period end: 22 October 2014 06:58
Location: Northern Prairie Star Party, 53.2167°N, 112.5333°W

Satellite Date Start Highest point End Downlink Frequencies (MHz)
Time Altitude Azimuth
Sapphire 21 Oct 07:10:12 07:15:34 60° 316° (NW) 07:20:58 437.095 MHz 1200 baud AX-25 AFSK
AO-7 21 Oct 07:16:54 07:25:02 61° 300° (WNW) 07:33:09 29.400 - 29.500 MHz
SO-67 21 Oct 07:31:34 07:32:51 12° 87° (E) 07:34:08 435.3500 MHz FM
PCSat 21 Oct 07:33:36 07:38:48 44° 322° (NW) 07:44:01 145.825 MHz
Uosat F 21 Oct 07:33:59 07:38:19 29° 301° (WNW) 07:42:39 435.120 FM
Hamsat 21 Oct 08:11:00 08:15:02 47° 291° (WNW) 08:19:04 145.90 MHz
STRAND 1 21 Oct 08:12:07 08:16:47 34° 265° (W) 08:21:29 ?
JAS-2 21 Oct 08:33:21 08:40:23 47° 298° (WNW) 08:47:47 435.800 - 435.900 CW/SSB, 435.910 FM
HO-68 21 Oct 08:38:12 08:40:28 12° 78° (ENE) 08:42:42 435.675 MHz FM
Sapphire 21 Oct 08:55:41 09:00:03 24° 340° (NNW) 09:04:27 437.095 MHz 1200 baud AX-25 AFSK
SO-67 21 Oct 09:02:50 09:06:18 70° 286° (WNW) 09:09:44 435.3500 MHz FM
RS-15 21 Oct 09:06:51 09:17:30 56° 241° (WSW) 09:28:35 29.354 - 29.394 USB, Beacon 29.352 USB
AO-7 21 Oct 09:10:22 09:16:21 23° 324° (NW) 09:22:21 29.400 - 29.500 MHz
PCSat 21 Oct 09:19:28 09:23:34 21° 346° (NNW) 09:27:40 145.825 MHz
Saudisat 1A 21 Oct 09:21:50 09:25:38 29° 120° (ESE) 09:29:27 436.775 MHz
MaSat-1 21 Oct 09:25:40 09:28:16 26° 43° (NE) 09:30:37 437.345 MHz
Oscar 11 21 Oct 10:12:33 10:15:16 16° 88° (E) 10:17:59 145.825 FM, Beacon 2401.500 USB
JAS-2 21 Oct 10:19:41 10:23:51 16° 320° (NW) 10:28:10 435.800 - 435.900 CW/SSB, 435.910 FM
HO-68 21 Oct 10:22:55 10:29:58 52° 101° (E) 10:36:57 435.675 MHz FM
Sapphire 21 Oct 10:41:28 10:45:21 19° 6° (N) 10:49:13 437.095 MHz 1200 baud AX-25 AFSK
ZACube-1 21 Oct 10:50:35 10:53:31 17° 88° (E) 10:56:23 437.345 MHz
Saudisat 1A 21 Oct 11:00:38 11:04:59 58° 321° (NW) 11:09:22 436.775 MHz
MaSat-1 21 Oct 11:01:35 11:03:56 23° 247° (WSW) 11:06:05 437.345 MHz
UKube-1 21 Oct 11:02:32 11:06:47 46° 100° (E) 11:10:59 145.840 MHz, 145.915 MHz
AO-7 21 Oct 11:03:18 11:06:13 12° 351° (N) 11:09:08 29.400 - 29.500 MHz
PCSat 21 Oct 11:04:51 11:08:54 21° 12° (NNE) 11:12:57 145.825 MHz
RS-15 21 Oct 11:21:31 11:27:14 16° 266° (W) 11:33:04 29.354 - 29.394 USB, Beacon 29.352 USB
FUNcube-1 21 Oct 11:35:33 11:39:42 42° 98° (E) 11:43:44 145.950 - 145.970 MHz USB
Oscar 11 21 Oct 11:47:40 11:51:59 73° 288° (WNW) 11:56:16 145.825 FM, Beacon 2401.500 USB
Oscar 16 21 Oct 11:53:11 11:55:31 13° 47° (NE) 11:57:51 437.025 USB, Beacon 2401.1428
KITSAT 1 21 Oct 11:55:16 11:56:19 10° 94° (E) 11:57:22 435.175 FM
HO-68 21 Oct 12:10:53 12:17:38 45° 302° (WNW) 12:24:22 435.675 MHz FM
AO-Echo 21 Oct 12:19:53 12:21:26 11° 45° (NE) 12:22:59 ?
Sapphire 21 Oct 12:25:31 12:30:25 32° 31° (NNE) 12:35:18 437.095 MHz 1200 baud AX-25 AFSK
ZACube-1 21 Oct 12:26:04 12:30:25 67° 288° (WNW) 12:34:38 437.345 MHz
UKube-1 21 Oct 12:39:06 12:42:48 27° 299° (WNW) 12:46:29 145.840 MHz, 145.915 MHz
Saudisat 1A 21 Oct 12:41:51 12:45:23 23° 343° (NNW) 12:48:56 436.775 MHz
Oscar 19 21 Oct 12:44:44 12:49:01 27° 58° (ENE) 12:53:19 437.125 CW, 437.150 USB
PCSat 21 Oct 12:48:33 12:53:43 42° 37° (NE) 12:58:52 145.825 MHz
AO-7 21 Oct 12:51:39 12:55:39 15° 19° (NNE) 12:59:40 29.400 - 29.500 MHz
AO-27 21 Oct 12:54:01 12:57:28 18° 51° (NE) 13:00:55 436.795 MHz FM
JAS-1B 21 Oct 13:10:13 13:15:31 38° 60° (ENE) 13:20:43 435.800 - 435.900 CW/SSB
FUNcube-1 21 Oct 13:12:14 13:15:57 28° 298° (WNW) 13:19:35 145.950 - 145.970 MHz USB
Oscar 11 21 Oct 13:25:28 13:27:26 13° 307° (NW) 13:29:24 145.825 FM, Beacon 2401.500 USB
Oscar 16 21 Oct 13:28:50 13:33:53 56° 68° (ENE) 13:38:56 437.025 USB, Beacon 2401.1428
Oscar 10/S400 21 Oct 13:41:43 13:51:11 15° 143° (SE) 14:01:21 145.825 - 145.975 CW/USB, Beacon 145.810 USB
Uribyol 2 21 Oct 13:41:56 13:46:42 37° 62° (ENE) 13:51:30 436.500 FM
KITSAT 1 21 Oct 13:42:05 13:49:39 46° 116° (ESE) 13:57:14 435.175 FM
Gurwin Techsat 1B 21 Oct 13:45:33 13:49:43 24° 56° (NE) 13:53:55 435.225 FM
ITAMSAT 1 21 Oct 13:46:56 13:51:44 39° 62° (ENE) 13:56:34 435.822 SSB
AO-Echo 21 Oct 13:54:20 13:59:03 49° 66° (ENE) 14:03:57 ?
TMSAT-1 21 Oct 13:59:17 14:03:26 24° 56° (NE) 14:07:36 436.925 FM
HO-68 21 Oct 13:59:46 14:03:42 16° 326° (NW) 14:07:38 435.675 MHz FM
ZACube-1 21 Oct 14:04:18 14:06:00 12° 309° (NW) 14:07:41 437.345 MHz
Sapphire 21 Oct 14:08:56 14:14:24 79° 234° (SW) 14:19:49 437.095 MHz 1200 baud AX-25 AFSK
SO-50 21 Oct 14:09:48 14:12:58 19° 114° (ESE) 14:16:11 436.795 FM
Oscar 19 21 Oct 14:22:58 14:28:04 60° 258° (WSW) 14:33:11 437.125 CW, 437.150 USB
Saudisat 1A 21 Oct 14:23:05 14:26:21 20° 8° (N) 14:29:37 436.775 MHz
AO-27 21 Oct 14:31:02 14:36:15 80° 72° (ENE) 14:41:31 436.795 MHz FM
PCSat 21 Oct 14:32:03 14:37:21 54° 239° (WSW) 14:42:36 145.825 MHz
AO-7 21 Oct 14:39:00 14:46:00 32° 45° (NE) 14:53:01 29.400 - 29.500 MHz
JAS-1B 21 Oct 15:00:39 15:06:17 44° 262° (W) 15:11:42 435.800 - 435.900 CW/SSB
Oscar 16 21 Oct 15:09:12 15:13:34 27° 267° (W) 15:17:57 437.025 USB, Beacon 2401.1428
ISS 21 Oct 15:11:57 15:14:07 16° 144° (SE) 15:16:18 145.800 FM
Uribyol 2 21 Oct 15:21:12 15:26:09 43° 262° (W) 15:31:09 436.500 FM
Gurwin Techsat 1B 21 Oct 15:23:55 15:29:14 74° 256° (WSW) 15:34:35 435.225 FM
ITAMSAT 1 21 Oct 15:26:19 15:31:14 41° 262° (W) 15:36:12 435.822 SSB
JAS-2 21 Oct 15:26:28 15:29:34 14° 36° (NE) 15:32:49 435.800 - 435.900 CW/SSB, 435.910 FM
AO-Echo 21 Oct 15:33:48 15:38:04 30° 267° (W) 15:42:30 ?
Uosat F 21 Oct 15:36:43 15:40:54 27° 58° (ENE) 15:45:06 435.120 FM
KITSAT 1 21 Oct 15:36:50 15:44:53 65° 320° (NW) 15:52:57 435.175 FM
TMSAT-1 21 Oct 15:37:35 15:42:53 75° 256° (WSW) 15:48:14 436.925 FM
SO-50 21 Oct 15:48:21 15:52:56 87° 315° (NW) 15:57:40 436.795 FM
UOSAT-12 21 Oct 15:53:22 15:56:42 20° 114° (ESE) 16:00:04 437.025 FM, 437.400 FM
Sapphire 21 Oct 15:53:37 15:57:01 17° 254° (WSW) 16:00:24 437.095 MHz 1200 baud AX-25 AFSK
Saudisat 1A 21 Oct 16:02:53 16:07:02 37° 31° (NNE) 16:11:10 436.775 MHz
Oscar 19 21 Oct 16:07:40 16:08:31 10° 278° (W) 16:09:22 437.125 CW, 437.150 USB
AO-27 21 Oct 16:12:44 16:16:25 19° 272° (W) 16:20:08 436.795 MHz FM
PCSat 21 Oct 16:18:48 16:19:35 10° 259° (W) 16:20:22 145.825 MHz
AO-7 21 Oct 16:29:42 16:38:01 89° 248° (WSW) 16:46:22 29.400 - 29.500 MHz
ISS 21 Oct 16:47:03 16:50:18 47° 163° (SSE) 16:53:32 145.800 FM
JAS-2 21 Oct 17:07:11 17:12:53 44° 61° (ENE) 17:19:19 435.800 - 435.900 CW/SSB, 435.910 FM
Gurwin Techsat 1B 21 Oct 17:07:34 17:10:10 14° 276° (W) 17:12:47 435.225 FM
Uosat F 21 Oct 17:14:25 17:19:23 60° 258° (WSW) 17:24:24 435.120 FM
TMSAT-1 21 Oct 17:21:07 17:23:46 14° 276° (W) 17:26:25 436.925 FM
SO-50 21 Oct 17:30:03 17:34:06 29° 337° (NNW) 17:38:15 436.795 FM
UOSAT-12 21 Oct 17:31:36 17:36:18 87° 315° (NW) 17:41:04 437.025 FM, 437.400 FM
KITSAT 1 21 Oct 17:34:29 17:41:48 36° 347° (NNW) 17:49:08 435.175 FM
Hamsat 21 Oct 17:34:32 17:38:24 36° 66° (ENE) 17:42:15 145.90 MHz
Saudisat 1A 21 Oct 17:42:29 17:46:49 54° 233° (SW) 17:51:07 436.775 MHz
SO-67 21 Oct 18:10:37 18:12:01 12° 58° (ENE) 18:13:26 435.3500 MHz FM
ISS 21 Oct 18:23:30 18:26:50 67° 183° (S) 18:30:10 145.800 FM
AO-7 21 Oct 18:25:20 18:31:56 26° 271° (W) 18:38:35 29.400 - 29.500 MHz
OPAL 21 Oct 18:37:05 18:41:54 44° 101° (ESE) 18:46:38 ?
JAS-2 21 Oct 18:52:16 18:57:59 46° 265° (W) 19:04:29 435.800 - 435.900 CW/SSB, 435.910 FM
Hamsat 21 Oct 19:10:41 19:14:25 30° 265° (W) 19:18:10 145.90 MHz
SO-50 21 Oct 19:12:26 19:16:01 21° 2° (N) 19:19:40 436.795 FM
HO-68 21 Oct 19:12:47 19:18:05 23° 44° (NE) 19:23:25 435.675 MHz FM
UOSAT-12 21 Oct 19:12:54 19:17:03 29° 337° (NNW) 19:21:13 437.025 FM, 437.400 FM
AO-40 21 Oct 19:23:44 00:30:05 30° 184° (S) 06:10:25 Beacon 2401.320
KITSAT 1 21 Oct 19:32:03 19:39:27 37° 16° (NNE) 19:46:49 435.175 FM
SO-67 21 Oct 19:41:03 19:44:30 80° 257° (WSW) 19:47:58 435.3500 MHz FM
ISS 21 Oct 20:00:12 20:03:19 36° 203° (SSW) 20:06:25 145.800 FM
STRAND 1 21 Oct 20:15:38 20:20:42 52° 100° (E) 20:25:43 ?
OPAL 21 Oct 20:16:12 20:20:43 35° 301° (WNW) 20:25:10 ?
UKube-1 21 Oct 20:29:58 20:32:34 16° 54° (NE) 20:35:10 145.840 MHz, 145.915 MHz
SO-50 21 Oct 20:53:35 20:57:53 32° 26° (NNE) 21:02:15 436.795 FM
UOSAT-12 21 Oct 20:54:57 20:58:33 21° 1° (N) 21:02:09 437.025 FM, 437.400 FM
HO-68 21 Oct 20:57:38 21:04:46 73° 66° (ENE) 21:11:56 435.675 MHz FM
FUNcube-1 21 Oct 21:03:53 21:06:17 14° 53° (NE) 21:08:40 145.950 - 145.970 MHz USB
Oscar 11 21 Oct 21:13:12 21:16:55 28° 63° (ENE) 21:20:37 145.825 FM, Beacon 2401.500 USB
KITSAT 1 21 Oct 21:28:07 21:36:14 71° 43° (NE) 21:44:17 435.175 FM
RS-15 21 Oct 21:33:42 21:38:09 13° 92° (E) 21:42:36 29.354 - 29.394 USB, Beacon 29.352 USB
ISS 21 Oct 21:38:29 21:39:18 11° 221° (SW) 21:40:07 145.800 FM
ZACube-1 21 Oct 21:52:25 21:56:30 32° 64° (ENE) 22:00:31 437.345 MHz
STRAND 1 21 Oct 21:55:12 21:59:42 31° 300° (WNW) 22:04:12 ?
UKube-1 21 Oct 22:03:47 22:08:09 88° 73° (ENE) 22:12:33 145.840 MHz, 145.915 MHz
SO-50 21 Oct 22:34:07 22:38:57 82° 228° (SW) 22:43:50 436.795 FM
UOSAT-12 21 Oct 22:35:45 22:40:01 31° 25° (NNE) 22:44:14 437.025 FM, 437.400 FM
FUNcube-1 21 Oct 22:37:23 22:41:58 75° 73° (ENE) 22:46:30 145.950 - 145.970 MHz USB
HO-68 21 Oct 22:46:56 22:53:06 31° 268° (W) 22:59:20 435.675 MHz FM
Oscar 11 21 Oct 22:48:50 22:52:58 42° 262° (W) 22:57:07 145.825 FM, Beacon 2401.500 USB
KITSAT 1 21 Oct 23:23:54 23:31:17 41° 246° (WSW) 23:38:38 435.175 FM
ZACube-1 21 Oct 23:28:29 23:32:49 40° 263° (W) 23:37:07 437.345 MHz
RS-15 21 Oct 23:37:11 23:47:35 52° 117° (ESE) 23:57:59 29.354 - 29.394 USB, Beacon 29.352 USB
UKube-1 21 Oct 23:42:45 23:44:59 14° 273° (W) 23:47:14 145.840 MHz, 145.915 MHz
SO-50 22 Oct 00:15:45 00:18:52 17° 247° (WSW) 00:22:00 436.795 FM
FUNcube-1 22 Oct 00:15:49 00:18:51 17° 272° (W) 00:21:53 145.950 - 145.970 MHz USB
UOSAT-12 22 Oct 00:15:54 00:20:40 83° 227° (SW) 00:25:22 437.025 FM, 437.400 FM
MaSat-1 22 Oct 00:45:08 00:47:55 18° 110° (ESE) 00:50:32 437.345 MHz
Oscar 16 22 Oct 01:36:07 01:38:06 12° 83° (E) 01:40:04 437.025 USB, Beacon 2401.1428
RS-15 22 Oct 01:48:48 01:59:43 69° 324° (NW) 02:10:46 29.354 - 29.394 USB, Beacon 29.352 USB
UOSAT-12 22 Oct 01:57:09 02:00:10 17° 247° (WSW) 02:03:09 437.025 FM, 437.400 FM
AO-Echo 22 Oct 01:57:30 01:58:47 11° 81° (E) 02:00:04 ?
MaSat-1 22 Oct 02:19:21 02:23:23 66° 307° (NW) 02:26:59 437.345 MHz
Oscar 19 22 Oct 02:28:22 02:32:54 31° 94° (E) 02:37:24 437.125 CW, 437.150 USB
JAS-1B 22 Oct 02:35:39 02:41:22 35° 96° (E) 02:47:55 435.800 - 435.900 CW/SSB
AO-27 22 Oct 02:38:39 02:42:15 18° 88° (E) 02:45:50 436.795 MHz FM
Oscar 10/S400 22 Oct 02:46:20 03:12:25 11° 244° (WSW) 03:49:17 145.825 - 145.975 CW/USB, Beacon 145.810 USB
Oscar 16 22 Oct 03:13:18 03:18:27 69° 103° (ESE) 03:23:33 437.025 USB, Beacon 2401.1428
Uribyol 2 22 Oct 03:27:14 03:32:14 44° 98° (E) 03:37:11 436.500 FM
ITAMSAT 1 22 Oct 03:32:25 03:37:28 45° 99° (E) 03:42:28 435.822 SSB
AO-Echo 22 Oct 03:33:24 03:38:38 60° 101° (E) 03:43:54 ?
Gurwin Techsat 1B 22 Oct 03:34:03 03:38:39 29° 93° (E) 03:43:14 435.225 FM
TMSAT-1 22 Oct 03:47:21 03:51:56 28° 93° (E) 03:56:29 436.925 FM
MaSat-1 22 Oct 03:57:34 03:59:41 14° 326° (NW) 04:01:41 437.345 MHz
RS-15 22 Oct 04:03:41 04:14:07 46° 356° (N) 04:24:47 29.354 - 29.394 USB, Beacon 29.352 USB
Oscar 19 22 Oct 04:07:32 04:12:28 49° 294° (WNW) 04:17:22 437.125 CW, 437.150 USB
AO-27 22 Oct 04:17:11 04:22:28 84° 288° (WNW) 04:27:42 436.795 MHz FM
OPAL 22 Oct 04:20:12 04:24:41 31° 57° (ENE) 04:29:08 ?
AO-7 22 Oct 04:25:02 04:31:01 21° 86° (E) 04:36:58 29.400 - 29.500 MHz
JAS-1B 22 Oct 04:26:19 04:32:19 57° 294° (WNW) 04:39:20 435.800 - 435.900 CW/SSB
Oscar 16 22 Oct 04:53:19 04:57:24 24° 304° (WNW) 05:01:28 437.025 USB, Beacon 2401.1428
Sapphire 22 Oct 04:57:41 05:02:04 26° 111° (ESE) 05:06:29 437.095 MHz 1200 baud AX-25 AFSK
Uribyol 2 22 Oct 05:06:54 05:11:40 37° 298° (WNW) 05:16:24 436.500 FM
ITAMSAT 1 22 Oct 05:12:09 05:16:53 35° 299° (WNW) 05:21:36 435.822 SSB
AO-Echo 22 Oct 05:12:39 05:17:07 29° 301° (WNW) 05:21:37 ?
Gurwin Techsat 1B 22 Oct 05:13:44 05:18:57 55° 293° (WNW) 05:24:07 435.225 FM
Uosat F 22 Oct 05:16:01 05:20:20 27° 93° (E) 05:24:37 435.120 FM
PCSat 22 Oct 05:19:47 05:24:46 39° 116° (ESE) 05:29:46 145.825 MHz
TMSAT-1 22 Oct 05:26:59 05:32:11 56° 293° (WNW) 05:37:21 436.925 FM
Oscar 19 22 Oct 05:49:01 05:50:42 12° 315° (NW) 05:52:24 437.125 CW, 437.150 USB
JAS-2 22 Oct 05:53:35 05:59:57 28° 88° (E) 06:06:28 435.800 - 435.900 CW/SSB, 435.910 FM
AO-27 22 Oct 05:57:43 06:01:17 19° 308° (NW) 06:04:50 436.795 MHz FM
OPAL 22 Oct 05:58:21 06:03:23 53° 257° (WSW) 06:08:24 ?
STRAND 1 22 Oct 05:59:56 06:04:11 27° 58° (ENE) 06:08:27 ?
AO-7 22 Oct 06:16:52 06:25:14 77° 109° (ESE) 06:33:34 29.400 - 29.500 MHz
RS-15 22 Oct 06:17:58 06:28:51 60° 29° (NNE) 06:40:06 29.354 - 29.394 USB, Beacon 29.352 USB
JAS-1B 22 Oct 06:18:36 06:21:58 15° 315° (NW) 06:25:34 435.800 - 435.900 CW/SSB
Sapphire 22 Oct 06:39:37 06:45:02 74° 312° (NW) 06:50:30 437.095 MHz 1200 baud AX-25 AFSK
Hamsat 22 Oct 06:49:33 06:53:18 31° 95° (E) 06:57:02 145.90 MHz
